• In Hungary
  • List of Countries
  • For 7 days
  • Water Temperature
  • Satellite Maps
  • Weather Map
  • News
  • Weather Widgets
  • user-avatar
    Login

    Hourly Weather Dobrich

    Today, 11 December, Monday

    Time Temperature Precipitation Wind Pressure Humidity
    00:00 -2°C° 0 mm 4 mps 740 mmHg 64%
    01:00 -1°C° 0 mm 3 mps 740 mmHg 62%
    02:00 -1°C° 0 mm 3 mps 740 mmHg 58%
    03:00 -1°C° 0 mm 3 mps 740 mmHg 57%
    04:00 -1°C° 0 mm 4 mps 740 mmHg 55%
    05:00 -1°C° 0 mm 5 mps 740 mmHg 54%
    06:00 0°C° 0 mm 4 mps 740 mmHg 54%
    07:00 0°C° 0 mm 4 mps 740 mmHg 55%
    08:00 0°C° 0 mm 4 mps 739 mmHg 56%
    09:00 +1°C° 0 mm 4 mps 740 mmHg 51%
    10:00 +4°C° 0 mm 4 mps 740 mmHg 47%
    11:00 +5°C° 0 mm 4 mps 740 mmHg 42%
    12:00 +6°C° 0 mm 4 mps 740 mmHg 42%
    13:00 +7°C° 0 mm 5 mps 740 mmHg 42%
    14:00 +8°C° 0 mm 5 mps 740 mmHg 42%
    15:00 +7°C° 0 mm 4 mps 740 mmHg 48%
    16:00 +6°C° 0 mm 4 mps 740 mmHg 53%
    17:00 +5°C° 0 mm 3 mps 740 mmHg 59%
    18:00 +5°C° 0 mm 3 mps 740 mmHg 63%
    19:00 +5°C° 0 mm 3 mps 740 mmHg 67%
    20:00 +5°C° 0 mm 3 mps 740 mmHg 70%
    21:00 +5°C° 0 mm 4 mps 741 mmHg 73%
    22:00 +5°C° 0 mm 4 mps 741 mmHg 76%
    23:00 +5°C° 0 mm 4 mps 741 mmHg 79%

    Tomorrow, 12 December, Tuesday

    Time Temperature Precipitation Wind Pressure Humidity
    00:00 +5°C° 0 mm 4 mps 741 mmHg 80%
    01:00 +5°C° 0 mm 4 mps 741 mmHg 81%
    02:00 +5°C° 0 mm 4 mps 741 mmHg 82%
    03:00 +4°C° 0 mm 4 mps 741 mmHg 83%
    04:00 +4°C° 0 mm 3 mps 741 mmHg 83%
    05:00 +4°C° 0 mm 3 mps 741 mmHg 84%
    06:00 +4°C° 0 mm 3 mps 741 mmHg 83%
    07:00 +3°C° 0 mm 3 mps 741 mmHg 83%
    08:00 +3°C° 0 mm 3 mps 741 mmHg 82%
    09:00 +5°C° 0 mm 3 mps 742 mmHg 74%
    10:00 +8°C° 0 mm 3 mps 742 mmHg 66%
    11:00 +9°C° 0 mm 3 mps 742 mmHg 58%
    12:00 +10°C° 0 mm 3 mps 742 mmHg 55%
    13:00 +12°C° 0 mm 2 mps 742 mmHg 51%
    14:00 +13°C° 0 mm 2 mps 742 mmHg 47%
    15:00 +12°C° 0 mm 2 mps 742 mmHg 50%
    16:00 +10°C° 0 mm 2 mps 742 mmHg 54%
    17:00 +9°C° 0 mm 2 mps 742 mmHg 58%
    18:00 +8°C° 0 mm 2 mps 742 mmHg 58%
    19:00 +8°C° 0 mm 2 mps 742 mmHg 58%
    20:00 +8°C° 0 mm 2 mps 742 mmHg 58%
    21:00 +7°C° 0 mm 2 mps 742 mmHg 58%
    22:00 +7°C° 0 mm 2 mps 742 mmHg 57%
    23:00 +8°C° 0 mm 1 mps 742 mmHg 56%

    Day after tomorrow, 13 December, Wednesday

    Time Temperature Precipitation Wind Pressure Humidity
    00:00 +8°C° 0 mm 1 mps 742 mmHg 55%
    01:00 +8°C° 0 mm 1 mps 742 mmHg 55%
    02:00 +8°C° 0 mm 1 mps 742 mmHg 55%
    03:00 +8°C° 0 mm 1 mps 742 mmHg 55%
    04:00 +7°C° 0 mm 1 mps 741 mmHg 55%
    05:00 +7°C° 0 mm 1 mps 741 mmHg 55%
    06:00 +7°C° 0 mm 1 mps 741 mmHg 55%
    07:00 +7°C° 0 mm 1 mps 742 mmHg 55%
    08:00 +7°C° 0 mm 1 mps 742 mmHg 55%
    09:00 +7°C° 0 mm 2 mps 742 mmHg 51%
    10:00 +9°C° 0 mm 2 mps 742 mmHg 47%
    11:00 +12°C° 0 mm 2 mps 742 mmHg 43%
    12:00 +12°C° 0 mm 2 mps 742 mmHg 42%
    13:00 +13°C° 0 mm 2 mps 741 mmHg 41%
    14:00 +14°C° 0 mm 2 mps 741 mmHg 40%
    15:00 +13°C° 0 mm 2 mps 741 mmHg 44%
    16:00 +10°C° 0 mm 2 mps 740 mmHg 49%
    17:00 +10°C° 0 mm 1 mps 740 mmHg 53%
    18:00 +10°C° 0 mm 1 mps 740 mmHg 54%
    19:00 +10°C° 0 mm 1 mps 740 mmHg 56%
    20:00 +9°C° 0 mm 1 mps 740 mmHg 57%
    21:00 +9°C° 0 mm 1 mps 740 mmHg 58%
    22:00 +9°C° 0 mm 1 mps 740 mmHg 58%
    23:00 +9°C° 0 mm 1 mps 739 mmHg 59%

    14 December, Thursday

    Time Temperature Precipitation Wind Pressure Humidity
    00:00 +9°C° 0 mm 1 mps 739 mmHg 60%
    01:00 +8°C° 0 mm 1 mps 739 mmHg 62%
    02:00 +8°C° 0 mm 1 mps 739 mmHg 64%
    03:00 +8°C° 0 mm 1 mps 738 mmHg 66%
    04:00 +8°C° 0 mm 1 mps 738 mmHg 68%
    05:00 +7°C° 0 mm 2 mps 738 mmHg 70%
    06:00 +7°C° 0.1 mm 2 mps 738 mmHg 75%
    07:00 +7°C° 0.1 mm 2 mps 739 mmHg 80%
    08:00 +6°C° 0.1 mm 2 mps 739 mmHg 85%
    09:00 +7°C° 0.1 mm 2 mps 739 mmHg 83%
    10:00 +8°C° 0.1 mm 3 mps 739 mmHg 81%
    11:00 +9°C° 0.1 mm 3 mps 739 mmHg 79%
    12:00 +9°C° 0 mm 3 mps 739 mmHg 75%
    13:00 +10°C° 0 mm 3 mps 739 mmHg 71%
    14:00 +11°C° 0 mm 3 mps 738 mmHg 66%
    15:00 +10°C° 0 mm 3 mps 738 mmHg 68%
    16:00 +9°C° 0 mm 2 mps 738 mmHg 71%
    17:00 +8°C° 0 mm 2 mps 738 mmHg 73%
    18:00 +8°C° 0 mm 2 mps 738 mmHg 74%
    19:00 +7°C° 0 mm 2 mps 738 mmHg 74%
    20:00 +7°C° 0 mm 2 mps 738 mmHg 75%
    21:00 +7°C° 0 mm 2 mps 738 mmHg 75%
    22:00 +6°C° 0 mm 2 mps 738 mmHg 75%
    23:00 +6°C° 0 mm 2 mps 738 mmHg 75%

    15 December, Friday

    Time Temperature Precipitation Wind Pressure Humidity
    00:00 +5°C° 0 mm 3 mps 737 mmHg 78%
    01:00 +5°C° 0 mm 3 mps 737 mmHg 81%
    02:00 +5°C° 0 mm 3 mps 737 mmHg 84%
    03:00 +5°C° 0 mm 3 mps 737 mmHg 86%
    04:00 +5°C° 0 mm 3 mps 737 mmHg 87%
    05:00 +5°C° 0 mm 3 mps 736 mmHg 88%
    06:00 +5°C° 0 mm 3 mps 737 mmHg 88%
    07:00 +5°C° 0 mm 3 mps 737 mmHg 88%
    08:00 +6°C° 0 mm 2 mps 737 mmHg 88%
    09:00 +7°C° 0 mm 2 mps 738 mmHg 81%
    10:00 +9°C° 0 mm 2 mps 738 mmHg 74%
    11:00 +12°C° 0 mm 2 mps 738 mmHg 67%
    12:00 +11°C° 0 mm 3 mps 738 mmHg 65%
    13:00 +12°C° 0 mm 3 mps 737 mmHg 62%
    14:00 +13°C° 0 mm 3 mps 737 mmHg 60%
    15:00 +12°C° 0 mm 4 mps 736 mmHg 66%
    16:00 +10°C° 0 mm 4 mps 736 mmHg 72%
    17:00 +8°C° 0 mm 5 mps 735 mmHg 78%
    18:00 +9°C° 0 mm 5 mps 735 mmHg 80%
    19:00 +9°C° 0 mm 6 mps 735 mmHg 82%
    20:00 +9°C° 0 mm 7 mps 735 mmHg 83%
    21:00 +9°C° 0 mm 7 mps 734 mmHg 83%
    22:00 +9°C° 0 mm 8 mps 734 mmHg 82%
    23:00 +9°C° 0 mm 8 mps 734 mmHg 81%

    16 December, Saturday

    Time Temperature Precipitation Wind Pressure Humidity
    00:00 +9°C° 0 mm 7 mps 733 mmHg 82%
    01:00 +9°C° 0 mm 7 mps 733 mmHg 82%
    02:00 +9°C° 0 mm 7 mps 733 mmHg 82%
    03:00 +9°C° 0 mm 7 mps 733 mmHg 83%
    04:00 +8°C° 0 mm 6 mps 733 mmHg 83%
    05:00 +8°C° 0 mm 6 mps 733 mmHg 84%
    06:00 +8°C° 0 mm 6 mps 733 mmHg 85%
    07:00 +8°C° 0 mm 6 mps 733 mmHg 85%
    08:00 +8°C° 0 mm 5 mps 733 mmHg 86%
    09:00 +9°C° 0 mm 5 mps 734 mmHg 80%
    10:00 +12°C° 0 mm 5 mps 734 mmHg 74%
    11:00 +13°C° 0 mm 5 mps 734 mmHg 68%
    12:00 +14°C° 0 mm 5 mps 734 mmHg 65%
    13:00 +14°C° 0 mm 4 mps 734 mmHg 61%
    14:00 +15°C° 0 mm 4 mps 734 mmHg 58%
    15:00 +14°C° 0 mm 4 mps 735 mmHg 61%
    16:00 +13°C° 0 mm 3 mps 735 mmHg 64%
    17:00 +12°C° 0 mm 3 mps 735 mmHg 67%
    18:00 +11°C° 0.2 mm 3 mps 736 mmHg 70%
    19:00 +10°C° 0.2 mm 3 mps 736 mmHg 73%
    20:00 +9°C° 0.2 mm 3 mps 736 mmHg 75%
    21:00 +7°C° 0.8 mm 4 mps 737 mmHg 79%
    22:00 +7°C° 0.8 mm 4 mps 737 mmHg 82%
    23:00 +6°C° 0.8 mm 4 mps 737 mmHg 85%
    Show more